Powrót do katalogu

COSMOS 970 DEB

AktywnyLEO
NORAD 10565·DEBRIS·🇷🇺 Russia

Wystrzelony Dec 21, 1977 z Baikonur Cosmodrome

Loading…

Następne Przeloty (najbliższe 24 godziny)

TLE

ŚwieżeSource: Space-Track

Epoka: Sep 14, 2026, 06:17 UTC

1 10565U 77121G   26257.26222373  .00000121  00000-0  23106-3 0  9993
2 10565  65.8278 197.3273 0119412 198.3348 236.2455 13.66145282421340

Śledź COSMOS 970 DEB w czasie rzeczywistym z AllMySat

Download on the App Store